User: anonymous   Login
Location: Fountain Hills
(33.6120°N, 111.7170°W)
Time: 10:23:16
(UTC-07:00)
Language:

Hamsat - Orbit

View from above orbital plane
View from above orbital plane
View from above satellite
View from above satellite

Ground track
Ground track

The orbit data is extracted from the following two-line orbital elements,

1 28650U 05017B   16268.90155659  .00000594  00000-0  69616-4 0  9997
2 28650  97.6183 246.8257 0022206 290.6804  69.2032 14.88412811616702
Epoch (UTC): 24 September 2016 21:38:14
Eccentricity: 0.0022206
inclination: 97.6183°
perigee height: 587 km
apogee height: 618 km
right ascension of ascending node: 246.8257°
argument of perigee: 290.6804°
revolutions per day: 14.88412811
mean anomaly at epoch: 69.2032°
orbit number at epoch: 61670

The dashed part of the orbit path shows where the satellite is in the earth's shadow,  

DLR